Location: York
(31.8935°S, 116.7682°E)
Time: 23:21:13
(UTC+08:00)

Envisat - Pass Details

Date: 16 May 2021
Orbit: 764 x 766 km, 98.1° (Epoch: 14 June)

Event Time Altitude Azimuth Distance (km) Brightness Sun altitude
Rises 04:08:22 0° 41° (NE) 3,221 6.7 -35.2°
Reaches altitude 10° 04:10:56 10° 52° (NE) 2,303 6.0 -34.7°
Maximum altitude 04:15:13 28° 110° (ESE) 1,418 4.8 -33.8°
Enters shadow 04:17:56 18° 154° (SSE) 1,835 5.1 -33.2°
